Location: Alafon
(8.4500°N, 4.2333°E)
Time: 12:17:19
(UTC+00:00)

N. Korean satellite - Visible Passes

Search period start: 18 June 2021 00:00
Search period end: 28 June 2021 00:00
Orbit: 450 x 500 km, 97.2° (Epoch: 17 June)

Date Brightness Start Highest point End Pass type
(mag) Time Alt. Az. Time Alt. Az. Time Alt. Az.
18 Jun 9.5 04:02:34 10° ENE 04:04:54 16° E 04:07:14 10° SE visible
20 Jun 6.8 04:39:53 10° NNE 04:43:30 72° E 04:47:10 10° S visible
21 Jun 8.8 04:13:16 10° NE 04:16:17 24° E 04:19:19 10° SSE visible
23 Jun 6.6 04:51:14 10° N 04:54:52 70° W 04:58:31 10° SSW visible
24 Jun 8.1 04:24:13 10° NNE 04:27:37 37° E 04:31:03 10° S visible
25 Jun 9.5 03:58:23 10° ENE 04:00:22 14° E 04:02:21 10° SE visible
27 Jun 7.1 04:35:18 10° NNE 04:38:55 60° E 04:42:32 10° S visible
